Portada
METAR-TAF:

METAR-TAF

Aeroports :

Greenville, Maine, Estats Units d'Amèrica

latitud: 45-28N, longitud: 069-35W, altitud: 427 m

Observació

L'informe es va fer fa 30 minuts, a les 14:56 UTC
Vent 9 kt del Sud/Sud-Est amb ràfegues de 15 kt, variant entre Sud-Est i Sud/Sud-Oest
Temperatura 11°C
Humitat 94%
Pressió 1009 hPa

METAR: KGNR 241456Z AUTO 16009G15KT 130V210 11/10 A2980 RMK AO1 SLP098 T01110100 58015

Hora: 11:26 (15:26 UTC)


TAF: manca

Observacions i pronòstics meteorològics de més de 4000 aeroports (METAR i TAF).

Les estacions disponibles són els punts grocs i vermells al mapa.

Posi el ratolí al punt desitjat per veure el nom de l'estació.

Feu clic per veure les observacions i els pronòstics meteorològics.

Per canviar el mapa: feu clic els botons verds amb una creu de color negre per apropar; al botó verd amb un guió per allunyar la imatge; o en les fletxes verdes per a mapes adjacents.


METAR-TAF: